Regional Weather Roundup
Issued by NWS Charleston, SC

Current Version | Previous Version | Graphics & Text | Print | Product List | Glossary On
Versions: 1 2 3 4 5 6 7 8 9 10 11 12 13 14 15 16 17 18 19 20 21 22 23 24 25 26 27 28 29 30 31 32 33 34 35 36 37 38 39 40 41 42 43 44 45 46 47 48 49 50
000
ASUS42 KCHS 290625
RWRCHS

REGIONAL WEATHER ROUNDUP
NATIONAL WEATHER SERVICE CHARLESTON SC
100 AM EST MON DEC 29 2014

NOTE: "FAIR" INDICATES FEW OR NO CLOUDS BELOW 12,000 FEET WITH NO
SIGNIFICANT WEATHER AND/OR OBSTRUCTIONS TO VISIBILITY.

NOT ALL STATIONS ARE QUALITY CONTROLLED BY THE NATIONAL
WEATHER SERVICE. USE DATA WITH CAUTION...ESPECIALLY
DEWPOINT OBSERVATIONS.

SCZ027-030-031-034>040-042>050-290700-
...SOUTHEAST SOUTH CAROLINA...

CITY           SKY/WX    TMP DP  RH WIND       PRES   REMARKS
N CHARLESTON   PTCLDY    59  59 100 CALM      30.05S FOG
6HR MIN TEMP:  57; 6HR MAX TEMP:  65;

WATERFRONT PRK   N/A     61 N/A N/A SW3         N/A
MOUNT PLEASANT FOG       63  63 100 CALM      30.04F VSB<1/4
PINOPOLIS        N/A    N/A N/A N/A CALM      29.97F
MONCKS CORNER  FOG       59  57  94 CALM      30.04F VSB 1/4
SUMMERVILLE    FOG       55  55 100 CALM      30.05S VSB 1/4
BEAUFORT MCAS  CLEAR     59  58  96 CALM      30.04F
6HR MIN TEMP:  59; 6HR MAX TEMP:  64;

BEAUFORT ARPT    N/A     59  59 100 S3        30.04F FOG
HILTON HEAD IS CLEAR     61  61 100 S5        30.06S
WALTERBORO     FOG       59 N/A N/A CALM      30.05S VSB 1/4
ALLENDALE      FOG       59  59 100 CALM      30.03S VSB 1/4

...SOUTHERN MIDLANDS AND PEE DEE...

CITY           SKY/WX    TMP DP  RH WIND       PRES   REMARKS
GEORGETOWN     NOT AVBL
KINGSTREE      NOT AVBL
ORANGEBURG     CLOUDY    61  59  93 CALM      30.04S
6HR MIN TEMP:  60; 6HR MAX TEMP:  66;

BARNWELL       MOCLDY    61  61 100 CALM      30.03F
AIKEN          CLOUDY    59  59 100 CALM      30.05F FOG
MANNING        MOCLDY    59 N/A N/A CALM      30.04S
COLUMBIA       CLOUDY    58  57  97 CALM      30.02F FOG
6HR MIN TEMP:  57; 6HR MAX TEMP:  63;

SUMTER         CLOUDY    58  57  96 S1        30.02F
6HR MIN TEMP:  57; 6HR MAX TEMP:  64;

FLORENCE       CLOUDY    62  58  86 NW3       30.05F
6HR MIN TEMP:  60; 6HR MAX TEMP:  67;

MYRTLE BEACH   CLOUDY    61  57  88 CALM      30.05S
N MYRTLE BEACH CLOUDY    59  57  93 CALM      30.04F
6HR MIN TEMP:  57; 6HR MAX TEMP:  64;


$$

GAZ063-065-086>088-099>101-113>116-118-119-134>141-150-290700-
...SOUTHEAST GEORGIA...

CITY           SKY/WX    TMP DP  RH WIND       PRES   REMARKS
SAVANNAH ARPT  CLEAR     62  60  93 SW3       30.06S
6HR MIN TEMP:  62; 6HR MAX TEMP:  70;

HUNTER AAF     CLEAR     59  59 100 S1        30.04S FOG
6HR MIN TEMP:  59; 6HR MAX TEMP:  69;

FORT STEWART   CLEAR     63  61  94 S3        30.04S FOG
6HR MIN TEMP:  61; 6HR MAX TEMP:  72;

STATESBORO     CLOUDY    63  63 100 SW6       30.03F
SYLVANIA       MOCLDY    59  59 100 CALM      30.04F FOG
CLAXTON        FAIR      61  61 100 CALM      30.04F

...CSRA...CENTRAL AND FAR SOUTHEAST GEORGIA...

CITY           SKY/WX    TMP DP  RH WIND       PRES   REMARKS
THOMSON        CLOUDY    61  61 100 CALM      30.06F VSB 3/4
AUGUSTA-BUSH   CLOUDY    59  58  96 CALM      30.03F
6HR MIN TEMP:  55; 6HR MAX TEMP:  65;

AUGUSTA-DANIEL CLOUDY    62  60  93 CALM      30.03F
SWAINSBORO     CLOUDY   N/A N/A N/A S3        30.03F
VIDALIA        CLEAR     61  61 100 S5        30.04F
EASTMAN        CLOUDY    65  65 100 SW8       30.05F
HAZLEHURST     CLOUDY    65  64  99 SW7       30.04S
ALMA           CLOUDY    62  61  96 S8        30.05F FOG
6HR MIN TEMP:  62; 6HR MAX TEMP:  68;

WAYCROSS       PTCLDY    66  65  97 W6        30.06F
JESUP          FAIR      63  63 100 CALM      30.06S FOG
BAXLEY         MOCLDY    64  63  94 SW7       30.04F
BRUNSWICK      PTCLDY    66  63  88 SW6       30.07S
SAINT SIMONS   PTCLDY    65  62  90 S3        30.07F
6HR MIN TEMP:  62; 6HR MAX TEMP:  68;


$$

SCZ027-028-034-036>038-045-046-048>050-GAZ119-141-290700-
...LAKE AND SUPPLEMENTAL COASTAL OBSERVATIONS...

STATION/POSITION TIME  TEMP    WIND        PRES    WAVE   SWELL
                       AIR SEA DIR/SP/G            HT/PER HT/PER/DIR
                 (UTC) (F)     (DEG/KT/KT) (MB)    (FT/S) (FT/S/D)
UPR LAKE MARION  NOT AVBL
WINYAH BAY       0600   60     230/  1     1017.0S
LAKE MURRAY      0600   56      CALM  /  1 1016.3S
ACE BASIN NERRS  0600   57        CALM     1017.0S
FORT PULASKI     0600   60 57  190/  3/  5 1018.0F
SAPELO ISLAND    0600   61     180/  5     1018.0S

$$

ANZ835-935-AMZ111-154-330-350-352-354-370-450-454-472-290700-
...C-MAN AND BUOY OBSERVATIONS...

STATION/POSITION TIME  TEMP    WIND        PRES    WAVE   SWELL
                       AIR SEA DIR/SP/G            HT/PER HT/PER/DIR
                 (UTC) (F)     (DEG/KT/KT) (MB)    (FT/S) (FT/S/D)
BUOY 41004       0600   73 73  210/ 14/ 16 1017.0F   3/14   2/14
BUOY 41008       0600   62 59  190/ 10/ 10 1017.7F   2/14   2/ 90/14
FOLLY BEACH CMAN 0600   58     220/  4/  5 1017.8F
CAPERS NEARSHORE 0500   58     270/  4/  6   N/A
FRIPP NEARSHORE  NOT AVBL


STATION/POSITION TIME  TEMP    WIND        PRES    WAVE   SWELL
                       AIR SEA DIR/SP/G            HT/PER HT/PER/DIR
                 (UTC) (F)     (DEG/KT/KT) (MB)    (FT/S) (FT/S/D)
5E ST. MARYS GA  0600      62                N/A     2/13   2/110/13
FRYING PAN BUOY  0600   67 68  250/  8/ 10 1018.2F   3/14   2/ 90/14
BUOY 41025       0600   64                 1017.5F   3/13
CAPE LOOKOUT NC  0600   59     260/  4/  5 1017.5S
BUOY 41002       0517   74 74  220/ 17/ 19 1019.8F   4/13   2/ 60/13
BUOY 41010       0600   76 77  190/  8/ 10 1020.4F   4/14   3/ 50/14
ST AUGUSTINE FL  0600   65     250/  5/  6 1019.5F


$$



USA.gov is the U.S. government's official web portal to all federal, state and local government web resources and services.